Zurück zum Katalog

CZ-6A DEB

AktivSSO
NORAD 54558·DEBRIS·🇨🇳 China

Gestartet Nov 11, 2022 von Taiyuan Satellite Launch Center

Loading…

Nächste Überflüge (nächste 24 Stunden)

TLE

AktuellSource: Space-Track

Epoche: Sep 14, 2026, 06:07 UTC

1 54558U 22151LJ  26257.25514436  .00000613  00000-0  30495-3 0  9994
2 54558  98.7908 270.4824 0056544  97.1206 263.6404 14.19814960198406

Verfolge CZ-6A DEB in Echtzeit mit AllMySat

Download on the App Store